Location: Columbia
(38.9520°N, 92.3340°W)
Time: 19:39:17
(UTC-05:00)

Meteor 1-4 Rocket - Visible Passes

Search period start: 27 April 2017 00:00
Search period end: 07 May 2017 00:00
Orbit: 454 x 509 km, 81.2° (Epoch: 26 April)

Date Brightness Start Highest point End Pass type
(mag) Time Alt. Az. Time Alt. Az. Time Alt. Az.
27 Apr 5.1 03:39:44 10° NNW 03:40:27 15° NNW 03:40:27 15° NNW visible
28 Apr 5.2 03:13:56 10° NNW 03:14:50 16° NNW 03:14:50 16° NNW visible
29 Apr 5.4 02:48:18 10° N 02:49:13 17° N 02:49:13 17° N visible
30 Apr 5.6 02:22:50 10° N 02:23:38 15° N 02:23:38 15° N visible
01 May 5.9 01:57:33 10° NNE 01:58:04 13° NNE 01:58:04 13° NNE visible
03 May 5.6 02:40:57 10° NNW 02:41:15 12° NNW 02:41:15 12° NNW visible
04 May 5.6 02:15:12 10° N 02:15:43 14° N 02:15:43 14° N visible
05 May 5.7 01:49:36 10° N 01:50:12 14° N 01:50:12 14° N visible
06 May 5.8 01:24:11 10° N 01:24:41 13° NNE 01:24:41 13° NNE visible
